"2010-05-30 10:49:00",23.2
"2010-05-30 10:50:00",23.2
"2010-05-30 10:51:00",23.2
"2010-05-30 10:52:00",23.3
"2010-05-30 10:53:00",23.2
"2010-05-30 10:54:00",23.2
"2010-05-30 10:55:00",23.2
"2010-05-30 10:56:00",23.2
"2010-05-30 10:57:00",23.2
"2010-05-30 10:58:00",23.3
"2010-05-30 10:59:00",23.3
"2010-05-30 11:00:00",23.3
"2010-05-30 11:01:00",23.3
"2010-05-30 11:02:00",23.2
"2010-05-30 11:03:00",23.2
"2010-05-30 11:04:00",23.2
"2010-05-30 11:05:00",23.2
"2010-05-30 11:06:00",23.2
"2010-05-30 11:07:00",23.3
"2010-05-30 11:08:00",23.3
"2010-05-30 11:09:00",23.3
"2010-05-30 11:10:00",23.4
"2010-05-30 11:11:00",23.4
"2010-05-30 11:12:00",23.5
"2010-05-30 11:13:00",23.5
"2010-05-30 11:14:00",23.6
"2010-05-30 11:15:00",23.6
"2010-05-30 11:16:00",23.5
"2010-05-30 11:17:00",23.6
"2010-05-30 11:18:00",23.6
"2010-05-30 11:19:00",23.6
"2010-05-30 11:20:00",23.6
"2010-05-30 11:21:00",23.6
"2010-05-30 11:22:00",23.7
"2010-05-30 11:23:00",23.7
"2010-05-30 11:24:00",23.8
"2010-05-30 11:25:00",23.9
"2010-05-30 11:26:00",23.9
"2010-05-30 11:27:00",23.9
"2010-05-30 11:28:00",23.9
"2010-05-30 11:29:00",23.8
"2010-05-30 11:30:00",23.8
"2010-05-30 11:31:00",23.8
"2010-05-30 11:32:00",23.8
"2010-05-30 11:33:00",23.8
"2010-05-30 11:34:00",23.8
"2010-05-30 11:35:00",23.9
"2010-05-30 11:36:00",24.0
"2010-05-30 11:37:00",24.0
"2010-05-30 11:38:00",24.0
"2010-05-30 11:39:00",24.1
"2010-05-30 11:40:00",24.1
"2010-05-30 11:41:00",24.1
"2010-05-30 11:42:00",24.1
"2010-05-30 11:43:00",24.1
"2010-05-30 11:44:00",24.1
"2010-05-30 11:45:00",24.1
"2010-05-30 11:46:00",24.1
"2010-05-30 11:47:00",24.1
"2010-05-30 11:48:00",24.2
"2010-05-30 11:49:00",24.2
"2010-05-30 11:50:00",24.2
"2010-05-30 11:51:00",24.3
"2010-05-30 11:52:00",24.2
"2010-05-30 11:53:00",24.4
"2010-05-30 11:54:00",24.3
"2010-05-30 11:55:00",24.4
"2010-05-30 11:56:00",24.4
"2010-05-30 11:57:00",24.4
"2010-05-30 11:58:00",24.4
"2010-05-30 11:59:00",24.4
"2010-05-30 12:00:00",24.4
"2010-05-30 12:01:00",24.4
"2010-05-30 12:02:00",24.3
"2010-05-30 12:03:00",24.3
"2010-05-30 12:04:00",24.2
"2010-05-30 12:05:00",24.2
"2010-05-30 12:06:00",24.2
"2010-05-30 12:07:00",24.1
"2010-05-30 12:08:00",24.1
"2010-05-30 12:09:00",24.0
"2010-05-30 12:10:00",23.9
"2010-05-30 12:11:00",23.9
"2010-05-30 12:12:00",23.9
"2010-05-30 12:13:00",23.9
"2010-05-30 12:14:00",23.9
"2010-05-30 12:15:00",23.9
"2010-05-30 12:16:00",23.8
"2010-05-30 12:17:00",23.8
"2010-05-30 12:18:00",23.7
"2010-05-30 12:19:00",23.7
"2010-05-30 12:20:00",23.7
"2010-05-30 12:21:00",23.6
"2010-05-30 12:22:00",23.6
"2010-05-30 12:23:00",23.5
"2010-05-30 12:24:00",23.5
"2010-05-30 12:25:00",23.5
"2010-05-30 12:26:00",23.5
"2010-05-30 12:27:00",23.4
"2010-05-30 12:28:00",23.4
"2010-05-30 12:29:00",23.4
"2010-05-30 12:30:00",23.4
"2010-05-30 12:31:00",23.4
"2010-05-30 12:32:00",23.4
"2010-05-30 12:33:00",23.3
"2010-05-30 12:34:00",23.4
"2010-05-30 12:35:00",23.3
"2010-05-30 12:36:00",23.3
"2010-05-30 12:37:00",23.3
"2010-05-30 12:38:00",23.3
"2010-05-30 12:39:00",23.3
"2010-05-30 12:40:00",23.2
"2010-05-30 12:41:00",23.3
"2010-05-30 12:42:00",23.2
"2010-05-30 12:43:00",23.3
"2010-05-30 12:44:00",23.3
"2010-05-30 12:45:00",23.2
"2010-05-30 12:46:00",23.2
"2010-05-30 12:47:00",23.1
"2010-05-30 12:48:00",23.0
"2010-05-30 12:49:00",23.0
"2010-05-30 12:50:00",23.0
"2010-05-30 12:51:00",23.0
"2010-05-30 12:52:00",23.1
"2010-05-30 12:53:00",23.1
"2010-05-30 12:54:00",23.1
"2010-05-30 12:55:00",23.0
"2010-05-30 12:56:00",23.0
"2010-05-30 12:57:00",23.1
"2010-05-30 12:58:00",23.1
"2010-05-30 12:59:00",23.1
"2010-05-30 13:00:00",23.2
"2010-05-30 13:01:00",23.2
"2010-05-30 13:02:00",23.3
"2010-05-30 13:03:00",23.3
"2010-05-30 13:04:00",23.4
"2010-05-30 13:05:00",23.4
"2010-05-30 13:06:00",23.5
"2010-05-30 13:07:00",23.5
"2010-05-30 13:08:00",23.5
"2010-05-30 13:09:00",23.6
"2010-05-30 13:10:00",23.6
"2010-05-30 13:11:00",23.6
"2010-05-30 13:12:00",23.6
"2010-05-30 13:13:00",23.6
"2010-05-30 13:14:00",23.6
"2010-05-30 13:15:00",23.7
"2010-05-30 13:16:00",23.7
"2010-05-30 13:17:00",23.7
"2010-05-30 13:18:00",23.8
"2010-05-30 13:19:00",23.8
"2010-05-30 13:20:00",23.8
"2010-05-30 13:21:00",23.8
"2010-05-30 13:22:00",23.8
"2010-05-30 13:23:00",23.8
"2010-05-30 13:24:00",23.9
"2010-05-30 13:25:00",23.8
"2010-05-30 13:26:00",23.8
"2010-05-30 13:27:00",23.8
"2010-05-30 13:28:00",23.8
"2010-05-30 13:29:00",23.8
"2010-05-30 13:30:00",23.8
"2010-05-30 13:31:00",23.8
"2010-05-30 13:32:00",23.8
"2010-05-30 13:33:00",23.8
"2010-05-30 13:34:00",23.8
"2010-05-30 13:35:00",23.8
"2010-05-30 13:36:00",23.7
"2010-05-30 13:37:00",23.7
"2010-05-30 13:38:00",23.7
"2010-05-30 13:39:00",23.7
"2010-05-30 13:40:00",23.7
"2010-05-30 13:41:00",23.7
"2010-05-30 13:42:00",23.7
"2010-05-30 13:43:00",23.7
"2010-05-30 13:44:00",23.7
"2010-05-30 13:45:00",23.7
"2010-05-30 13:46:00",23.7
"2010-05-30 13:47:00",23.7
"2010-05-30 13:48:00",23.8
"2010-05-30 13:49:00",23.8
"2010-05-30 13:50:00",23.8
"2010-05-30 13:51:00",23.8
"2010-05-30 13:52:00",23.7
"2010-05-30 13:53:00",23.7
"2010-05-30 13:54:00",23.6
"2010-05-30 13:55:00",23.6
"2010-05-30 13:56:00",23.6
"2010-05-30 13:57:00",23.6
"2010-05-30 13:58:00",23.6
"2010-05-30 13:59:00",23.6
"2010-05-30 14:00:00",23.6
"2010-05-30 14:01:00",23.7
"2010-05-30 14:02:00",23.7
"2010-05-30 14:03:00",23.7
"2010-05-30 14:04:00",23.7
"2010-05-30 14:05:00",23.7
"2010-05-30 14:06:00",23.7
"2010-05-30 14:07:00",23.7
"2010-05-30 14:08:00",23.6
"2010-05-30 14:09:00",23.6
"2010-05-30 14:10:00",23.6
"2010-05-30 14:11:00",23.6
"2010-05-30 14:12:00",23.6
"2010-05-30 14:13:00",23.6
"2010-05-30 14:14:00",23.5
"2010-05-30 14:15:00",23.5
"2010-05-30 14:16:00",23.5
"2010-05-30 14:17:00",23.5
"2010-05-30 14:18:00",23.5
"2010-05-30 14:19:00",23.5
"2010-05-30 14:20:00",23.5
"2010-05-30 14:21:00",23.5
"2010-05-30 14:22:00",23.5
"2010-05-30 14:23:00",23.5
"2010-05-30 14:24:00",23.5
"2010-05-30 14:25:00",23.5
"2010-05-30 14:26:00",23.5
"2010-05-30 14:27:00",23.5
"2010-05-30 14:28:00",23.4
"2010-05-30 14:29:00",23.4
"2010-05-30 14:30:00",23.4
"2010-05-30 14:31:00",23.4
"2010-05-30 14:32:00",23.4
"2010-05-30 14:33:00",23.5
"2010-05-30 14:34:00",23.5
"2010-05-30 14:35:00",23.6
"2010-05-30 14:36:00",23.6
"2010-05-30 14:37:00",23.6
"2010-05-30 14:38:00",23.7
"2010-05-30 14:39:00",23.7
"2010-05-30 14:40:00",23.7
"2010-05-30 14:41:00",23.7
"2010-05-30 14:42:00",23.7
"2010-05-30 14:43:00",23.7
"2010-05-30 14:44:00",23.7
"2010-05-30 14:45:00",23.8
"2010-05-30 14:46:00",23.7
"2010-05-30 14:47:00",23.8
"2010-05-30 14:48:00",23.8
"2010-05-30 14:49:00",23.8
"2010-05-30 14:50:00",23.7
"2010-05-30 14:51:00",23.7
"2010-05-30 14:52:00",23.7
"2010-05-30 14:53:00",23.7
"2010-05-30 14:54:00",23.6
"2010-05-30 14:55:00",23.6
"2010-05-30 14:56:00",23.6
"2010-05-30 14:57:00",23.5
"2010-05-30 14:58:00",23.5
"2010-05-30 14:59:00",23.5
"2010-05-30 15:00:00",23.4
"2010-05-30 15:01:00",23.4
"2010-05-30 15:02:00",23.5
"2010-05-30 15:03:00",23.4
"2010-05-30 15:04:00",23.5
"2010-05-30 15:05:00",23.5
"2010-05-30 15:06:00",23.5
